Voltar ao catálogo

COSMOS 1691 DEB

AtivoPO
NORAD 43316·DEBRIS·🇷🇺 Russia

Lançado Oct 9, 1985 de Plesetsk Cosmodrome

Loading…

Próximas Passagens (próximas 24 horas)

TLE

AtualizadoSource: Space-Track

Época: Sep 14, 2026, 11:06 UTC

1 43316U 85094AA  26257.46306657  .00000502  00000-0  24307-2 0  9997
2 43316  82.6047 146.8471 0007824 227.8282 132.2151 12.71368625 86908

Acompanhe COSMOS 1691 DEB em tempo real com AllMySat

Download on the App Store